Погода в Караульной Горе

Россия / Республика Татарстан     54°32′03″N   50°40′40″E
темп.,
°C
ветер,
м/с
пор.,
м/с
влажн.,
%
обл.,
%
осадки,
мм/ч
давл.,
гПа
погр.,
м
11 апреля, вс
вс1100:00+9юв4989100 0.1 1023149
03:00+11ю51285100 0.1 1023318
06:00+9ююв41090100 0.0 1025256
09:00+13ю51177100 0.0 1026665
12:00+15юз5868100 0.0 1027756
15:00+13ссз3379100 0.0 1029241
18:00+11с3590100 0.0 1030126
21:00+9св3694100 0.1 1031142
12 апреля, пн
пн1200:00+9св3595100 0.0 103298
03:00+8ссв3596100 0.0 1033123
06:00+8св4695100 0.0 1034142
09:00+12всв567998 0.0 1035376
12:00+16в456196 0.0 1035873
15:00+17в445499 0.0 10341015
18:00+12всв6108285 0.0 1035267
21:00+10всв4991100 0.0 1036200
13 апреля, вт
вт1300:00+8в379499 0.0 1036131
03:00+8вюв349267 0.0 103653
06:00+8вюв3488100 0.0 103685
09:00+13ююв4566100 0.0 1036349
12:00+16ююв455097 0.0 1035840
15:00+18ююв454164 0.0 10341072
18:00+14ю34495 0.0 103345
21:00+11ююв335320 0.0 103322
14 апреля, ср
ср1400:00+9ю335810 0.0 103324
03:00+7ююв22635 0.0 103215
06:00+7ююв23655 0.0 103244
09:00+13ююв34495 0.0 1031389
12:00+16ююв34435 0.0 1030821
15:00+18ююв34425 0.0 10281049
18:00+15юв22545 0.0 102614
21:00+12юв22655 0.0 102613
15 апреля, чт
чт1500:00+10ююв12735 0.0 102510
03:00+9юв22785 0.0 102510
06:00+9юв22775 0.0 102417
09:00+15ююв34591 0.0 1023467
12:00+18ю34420 0.0 10211115
15:00+19ююв33340 0.0 10191324
18:00+16ю22470 0.0 101813
21:00+12ююз22620 0.0 101810